Aérodrome :
LOGIN :

S'inscrire | Disclaimer

   EN    FR    IT 

 










Légende :    VFR   VFR Marginal   IFR   IFR Intensif   IFR Très Intensif
Visi : 
Plafond : 
>= 8 km
>= 3000ft
5 à 8 km
1000 à 3000 ft
1500m à 5 km
500 à 1000 ft
800 à 1500m
200 à 500 ft
< 800m
< 200 ft
Symboles :   Orages  Brouillard  Fortes neiges  Fortes précipitations  Vent > 20 kt
SIGMETs :   Divers  Orages  Givrage  Turbulence  Onde Orograph.  Cendres Volcan.







- Altitude de l'aérodrome : 1989 ft
- Code IATA : KLV


LKKV - Karlovy Vary

DERNIER METAR :
  • 171130Z 26008KT 9000 -SHSN SCT006 BKN018 M00/M02 Q1016 R29/550295

METARs EXPIRÉS :
  • 171100Z 26009KT 230V290 5000 -SHSN FEW005 SCT008 M01/M02 Q1016 R29/550295
  • 171033Z 25008KT 220V280 9999 -SHSN SCT009 SCT043 M01/M02 Q1016 R29/550295 RMK REG QNH 1013
  • 171000Z 26008KT 9999 FEW008 SCT020 M01/M02 Q1016 R29/550295
  • 170930Z 26010KT 9999 FEW007 SCT020 M01/M02 Q1016 R29/550295
  • 170900Z 26009KT 9999 -SHSN SCT007 BKN016 M01/M02 Q1016 R29/550295

TAF TAF LKKV
Valide du 17 à 12h jusqu'au 18 à 18h UTC


171100Z 1712/1818 25008KT 9999 BKN020
TEMPO 1712/1815 4000 SN BKN007
PROB30
TEMPO 1712/1721 1400 SHSN SCT002TCU BKN003
Pas de NOTAMs connus pour ce terrain.



MET'MAP, la Météo Aéronautique d'un coup d'oeil ! - Copyright ORBIFLY Décembre 2007 - Disclaimer

ORBIFLY MET'MAP TEAM :

Programmation & Développement : Alexandra Zaïnal
Conception & Développement : Baudouin d'Aumeries
Co-Programmation & Développement : Marc-Olivier Méhu
Soutien technique & logistique : Manuel Goepfert

Contact : metmap@orbifly.com




SOURCES & CREDITS :

   NOAA